Williston, ND

4:37 PM CST on February 26, 2017 (GMT -0600)
Sloulin International

Weather History for KISN - September, 2013

Change the Weather History Date:

Sunday, September 29, 2013

  Actual Average Record
Temperature  
Mean Temperature 58 °F 50 °F  
Max Temperature 77 °F 65 °F 85 °F (1967)
Min Temperature 38 °F 36 °F 13 °F (1907)
Degree Days  
Heating Degree Days 7 15  
Month to date heating degree days 131 260  
Since 1 July heating degree days 177 331  
Cooling Degree Days 0 0  
Month to date cooling degree days 78 24  
Year to date cooling degree days 405 453  
Growing Degree Days 8 (Base 50)    
Moisture  
Dew Point 38 °F    
Average Humidity 55    
Maximum Humidity 85    
Minimum Humidity 24    
Precipitation  
Precipitation 0.00 in 0.04 in 0.93 in (1937)
Month to date precipitation 1.90 1.03  
Year to date precipitation 17.79 12.15  
Snow  
Snow 0.00 in - - ()
Month to date snowfall 0.0  
Snow Depth 0.00 in    
Sea Level Pressure  
Sea Level Pressure 29.59 in    
Wind  
Wind Speed 7 mph (SW)    
Max Wind Speed 21 mph    
Max Gust Speed 30 mph    
Visibility 10 miles    
Events      
T = Trace of Precipitation, MM = Missing Value Source: NWS Daily Summary

Daily Weather History Graph

Daily Weather History Graph

Search for Another Location

Airport or City:

Trip Planner

Search our weather history database for the weather conditions in past years. The results will help you decide how hot, cold, wet, or windy it might be!

Date:

Astronomy

Sep. 29, 2013 Rise Set
Actual Time 7:51 AM CDT 7:37 PM CDT
Civil Twilight 7:20 AM CDT 8:08 PM CDT
Nautical Twilight 6:44 AM CDT 8:44 PM CDT
Astronomical Twilight 6:07 AM CDT 9:21 PM CDT
Moon 2:14 AM CDT (9/29) 4:53 PM CDT (9/29)
Length of Visible Light 12h 47m
Length of Day
11h 45m
Waning Crescent, 27% of the Moon is Illuminated
Sep 29
Waning Crescent
Oct 4
New
Oct 11
First Quarter
Oct 18
Full
Oct 26
Last Quarter

Hourly Weather History & Observations

Time (CDT) Temp. Windchill Dew Point Humidity Pressure Visibility Wind Dir Wind Speed Gust Speed Precip Events Conditions
12:52 AM 42.1 °F - 36.0 °F 79% 29.73 in 10.0 mi Calm Calm - N/A   Clear
1:52 AM 42.1 °F - 36.0 °F 79% 29.72 in 10.0 mi Calm Calm - N/A   Clear
2:52 AM 44.1 °F 41.5 °F 36.0 °F 73% 29.70 in 10.0 mi South 4.6 mph - N/A   Clear
3:52 AM 39.9 °F - 35.1 °F 83% 29.68 in - Calm Calm - N/A   Unknown
4:52 AM - - - N/A% 29.66 in - North - - N/A   Unknown
5:52 AM - - - N/A% 29.64 in - North - - N/A   Unknown
6:52 AM - - - N/A% 29.62 in - North - - N/A   Unknown
7:52 AM - - - N/A% 29.61 in - North - - N/A   Unknown
8:52 AM - - - N/A% 29.60 in - North - - N/A   Unknown
9:52 AM 52.0 °F - 42.1 °F 69% 29.60 in 10.0 mi Calm Calm - N/A   Unknown
10:52 AM 55.9 °F - 41.0 °F 57% 29.59 in 10.0 mi Calm Calm - N/A   Clear
11:52 AM 64.0 °F - 44.1 °F 48% 29.57 in 10.0 mi SW 10.4 mph - N/A   Partly Cloudy
12:52 PM 63.0 °F - 42.1 °F 46% 29.55 in 10.0 mi SSW 6.9 mph - N/A   Overcast
1:52 PM 73.0 °F - 41.0 °F 31% 29.49 in 10.0 mi South 11.5 mph 20.7 mph N/A   Overcast
2:52 PM 72.0 °F - 39.9 °F 31% 29.48 in 10.0 mi SSW 11.5 mph - N/A   Mostly Cloudy
3:52 PM 73.0 °F - 42.1 °F 33% 29.48 in 10.0 mi SW 6.9 mph - N/A   Overcast
4:52 PM 77.0 °F - 37.9 °F 24% 29.48 in 10.0 mi West 15.0 mph 24.2 mph N/A   Clear
5:52 PM 72.0 °F - 39.0 °F 30% 29.49 in 10.0 mi West 11.5 mph - N/A   Clear
6:52 PM 71.1 °F - 39.9 °F 32% 29.50 in 10.0 mi West 12.7 mph - N/A   Clear
7:52 PM 66.0 °F - 34.0 °F 30% 29.51 in 10.0 mi West 12.7 mph - N/A   Clear
8:52 PM 63.0 °F - 34.0 °F 34% 29.53 in 10.0 mi West 10.4 mph - N/A   Clear
9:52 PM 59.0 °F - 34.0 °F 39% 29.56 in 10.0 mi SW 8.1 mph - N/A   Mostly Cloudy
10:52 PM 59.0 °F - 33.1 °F 38% 29.57 in 10.0 mi West 8.1 mph - N/A   Partly Cloudy
11:52 PM 55.9 °F - 34.0 °F 44% 29.58 in 10.0 mi Calm Calm - N/A   Mostly Cloudy